Dalhart, TX

4:57 AM CDT on April 23, 2018 (GMT -0500)
Dalhart Municipal

Weather History for KDHT - June, 2014

Change the Weather History Date:

Saturday, June 7, 2014

  Actual Average Record
Temperature  
Mean Temperature 65 °F 70 °F  
Max Temperature 71 °F 85 °F 102 °F (2008)
Min Temperature 59 °F 56 °F 45 °F (2007)
Degree Days  
Heating Degree Days 0 1  
Month to date heating degree days 0 7  
Since 1 June heating degree days 0 7  
Since 1 July heating degree days 4593 4724  
Cooling Degree Days 0 6  
Month to date cooling degree days 76 38  
Year to date cooling degree days 196 110  
Since 1 June cooling degree days 76 38  
Growing Degree Days 15 (Base 50)    
Moisture  
Dew Point 58 °F    
Average Humidity 78    
Maximum Humidity 90    
Minimum Humidity 66    
Precipitation  
Precipitation 1.25 in 0.08 in 1.25 in (2014)
Month to date precipitation 1.75 0.55  
Year to date precipitation 3.59 5.96  
Snow  
Snow 0.00 in 0.00 in 0.00 in ()
Month to date snowfall 0.0 0.0  
Since 1 June snowfall 0.0 0.0  
Since 1 July snowfall 17.4 18.9  
Snow Depth 0.00 in    
Sea Level Pressure  
Sea Level Pressure 30.00 in    
Wind  
Wind Speed 12 mph (NE)    
Max Wind Speed 29 mph    
Max Gust Speed 37 mph    
Visibility 8 miles    
Events Rain , Thunderstorm    
T = Trace of Precipitation, MM = Missing Value Source: NWS Daily Summary

Daily Weather History Graph

Daily Weather History Graph

Search for Another Location

Airport or City:

Astronomy

Jun. 07, 2014 Rise Set
Actual Time 6:33 AM CDT 9:05 PM CDT
Civil Twilight 6:03 AM CDT 9:35 PM CDT
Nautical Twilight 5:26 AM CDT 10:12 PM CDT
Astronomical Twilight 4:45 AM CDT 10:53 PM CDT
Moon 3:34 PM CDT (6/7) 2:45 AM CDT (6/7)
Length of Visible Light 15h 31m
Length of Day
14h 31m
Waxing Gibbous, 68% of the Moon is Illuminated
Jun 7
Waxing Gibbous
Jun 12
Full
Jun 19
Last Quarter
Jun 27
New
Jul 5
First Quarter

Hourly Weather History & Observations

Time (CDT) Temp. Dew Point Humidity Pressure Visibility Wind Dir Wind Speed Gust Speed Precip Events Conditions
12:53 AM 63.0 °F 57.0 °F 81% 29.81 in 10.0 mi East 5.8 mph - N/A   Clear
1:53 AM 63.0 °F 57.0 °F 81% 29.82 in 10.0 mi NNE 12.7 mph - N/A   Mostly Cloudy
2:53 AM 63.0 °F 57.0 °F 81% 29.82 in 10.0 mi NE 10.4 mph - N/A   Mostly Cloudy
3:18 AM 63.0 °F 57.0 °F 81% 29.99 in 10.0 mi NE 6.9 mph - N/A Thunderstorm Mostly Cloudy
3:33 AM 63.0 °F 57.0 °F 81% 29.95 in 9.0 mi ENE 15.0 mph - 0.00 in Rain , Thunderstorm Light Thunderstorms and Rain
3:48 AM 62.6 °F 57.2 °F 82% 30.01 in 10.0 mi Calm Calm - 0.00 in Thunderstorm Mostly Cloudy
3:53 AM 63.0 °F 57.0 °F 81% 29.82 in 10.0 mi East 4.6 mph - 0.00 in Thunderstorm Thunderstorm
4:10 AM 62.1 °F 57.9 °F 86% 29.98 in 1.8 mi Calm Calm - 0.15 in Rain , Thunderstorm Heavy Thunderstorms and Rain
4:17 AM 62.1 °F 57.9 °F 86% 30.00 in 3.0 mi Variable 5.8 mph - 0.17 in Rain , Thunderstorm Thunderstorms and Rain
4:27 AM 63.0 °F 57.9 °F 84% 30.01 in 1.8 mi South 6.9 mph - 0.33 in Rain , Thunderstorm Heavy Thunderstorms and Rain
4:38 AM 61.0 °F 57.9 °F 90% 30.00 in 3.0 mi North 6.9 mph - 0.44 in Rain , Thunderstorm Heavy Thunderstorms and Rain
4:53 AM 62.1 °F 57.0 °F 84% 29.83 in 8.0 mi ENE 4.6 mph - 0.48 in Rain , Thunderstorm Light Rain
5:01 AM 62.1 °F 57.9 °F 86% 29.99 in 9.0 mi ENE 8.1 mph - 0.00 in Rain , Thunderstorm Light Thunderstorms and Rain
5:21 AM 63.0 °F 57.9 °F 84% 30.03 in 10.0 mi North 15.0 mph 23.0 mph 0.00 in Rain , Thunderstorm Light Rain
5:28 AM 62.1 °F 57.9 °F 86% 30.03 in 6.0 mi North 19.6 mph 25.3 mph 0.02 in Rain , Thunderstorm Thunderstorms and Rain
5:46 AM 61.0 °F 57.9 °F 90% 30.10 in 2.5 mi NW 28.8 mph 36.8 mph 0.14 in Rain , Thunderstorm Light Thunderstorms and Rain
5:53 AM 61.0 °F 57.0 °F 87% 29.91 in 1.0 mi North 21.9 mph 36.8 mph 0.30 in Rain , Thunderstorm Heavy Thunderstorms and Rain
6:03 AM 61.0 °F 57.0 °F 87% 30.03 in 3.0 mi ENE 12.7 mph - 0.06 in Rain , Thunderstorm Thunderstorms and Rain
6:13 AM 61.0 °F 57.9 °F 90% 30.02 in 7.0 mi East 11.5 mph - 0.06 in Rain , Thunderstorm Light Rain
6:53 AM 61.0 °F 57.0 °F 87% 29.87 in 10.0 mi ENE 17.3 mph - 0.07 in Rain , Thunderstorm Light Thunderstorms and Rain
7:08 AM 60.8 °F 57.2 °F 88% 30.05 in 10.0 mi East 11.5 mph - N/A Thunderstorm Overcast
7:20 AM 62.1 °F 57.9 °F 86% 30.08 in 10.0 mi NNW 11.5 mph - 0.00 in Thunderstorm Thunderstorm
7:38 AM 61.0 °F 57.0 °F 87% 30.10 in 2.5 mi NNW 8.1 mph - 0.17 in Rain , Thunderstorm Heavy Thunderstorms and Rain
7:53 AM 61.0 °F 57.9 °F 90% 29.96 in 5.0 mi ENE 6.9 mph - 0.21 in Rain , Thunderstorm Light Thunderstorms and Rain
8:01 AM 61.0 °F 57.9 °F 90% 30.07 in 8.0 mi East 8.1 mph - 0.00 in Rain , Thunderstorm Light Rain
8:08 AM 61.0 °F 57.9 °F 90% 30.08 in 10.0 mi ESE 8.1 mph - 0.00 in Rain Light Rain
8:53 AM 62.1 °F 57.9 °F 86% 30.01 in 10.0 mi West 12.7 mph - 0.00 in   Overcast
9:53 AM 63.0 °F 57.9 °F 84% 29.96 in 10.0 mi ENE 8.1 mph - 0.02 in   Clear
10:44 AM 61.0 °F 57.9 °F 90% 30.13 in 10.0 mi NNE 17.3 mph 24.2 mph N/A Thunderstorm Thunderstorm
10:53 AM 60.1 °F 57.0 °F 90% 30.02 in 8.0 mi North 15.0 mph 27.6 mph N/A Thunderstorm Thunderstorm
11:04 AM 60.1 °F 55.9 °F 86% 30.15 in 8.0 mi NW 11.5 mph - N/A Thunderstorm Mostly Cloudy
11:37 AM 60.1 °F 55.9 °F 86% 30.11 in 9.0 mi North 10.4 mph - 0.00 in Thunderstorm Mostly Cloudy
11:45 AM 61.0 °F 57.0 °F 87% 30.11 in 9.0 mi North 11.5 mph - 0.00 in   Scattered Clouds
11:53 AM 62.1 °F 57.9 °F 86% 30.00 in 9.0 mi NNW 11.5 mph - 0.00 in   Scattered Clouds
12:53 PM 64.0 °F 57.9 °F 80% 29.97 in 10.0 mi NNE 15.0 mph - N/A   Scattered Clouds
1:46 PM 64.9 °F 57.9 °F 78% 30.10 in 10.0 mi NNE 10.4 mph - N/A Thunderstorm Partly Cloudy
1:53 PM 64.9 °F 57.9 °F 78% 29.96 in 10.0 mi NE 11.5 mph - N/A Thunderstorm Partly Cloudy
2:11 PM 66.0 °F 57.9 °F 75% 30.10 in 10.0 mi ENE 13.8 mph - N/A   Clear
2:34 PM 64.9 °F 57.0 °F 75% 30.10 in 10.0 mi NE 13.8 mph - N/A   Mostly Cloudy
2:53 PM 64.9 °F 57.0 °F 75% 29.98 in 10.0 mi NE 11.5 mph - N/A   Overcast
3:06 PM 64.9 °F 55.9 °F 73% 30.09 in 10.0 mi NNE 11.5 mph - N/A   Mostly Cloudy
3:23 PM 66.9 °F 57.0 °F 70% 30.08 in 10.0 mi ENE 12.7 mph - N/A   Partly Cloudy
3:53 PM 68.0 °F 57.0 °F 68% 29.94 in 10.0 mi NE 10.4 mph - N/A   Partly Cloudy
4:53 PM 70.0 °F 57.0 °F 63% 29.91 in 10.0 mi ENE 11.5 mph - N/A   Clear
5:53 PM 70.0 °F 60.1 °F 71% 29.91 in 10.0 mi ENE 12.7 mph - N/A   Clear
6:53 PM 69.1 °F 59.0 °F 70% 29.90 in 10.0 mi ENE 12.7 mph - N/A   Mostly Cloudy
7:53 PM 68.0 °F 60.1 °F 76% 29.92 in 8.0 mi East 11.5 mph - N/A   Overcast
8:13 PM 66.9 °F 60.1 °F 79% 30.04 in 7.0 mi East 13.8 mph - N/A Thunderstorm Mostly Cloudy
8:53 PM 66.9 °F 60.1 °F 79% 29.97 in 8.0 mi NE 8.1 mph - 0.00 in Rain , Thunderstorm Light Rain
9:18 PM 66.0 °F 61.0 °F 84% 30.15 in 5.0 mi WNW 12.7 mph - 0.00 in Rain Light Rain
9:29 PM 64.0 °F 57.9 °F 80% 30.15 in 6.0 mi NW 17.3 mph 23.0 mph 0.00 in Rain , Thunderstorm Light Rain
9:53 PM 61.0 °F 55.9 °F 83% 30.05 in 7.0 mi NW 11.5 mph - 0.02 in Rain Rain
10:53 PM 61.0 °F 57.9 °F 90% 30.01 in 9.0 mi NE 16.1 mph - 0.15 in Rain Light Rain
11:53 PM 61.0 °F 55.9 °F 83% 29.99 in 10.0 mi ESE 13.8 mph - 0.00 in   Partly Cloudy